Flag for Chile Weather past 2 weeks in Santiago, Chile

Now
39 °F

Clear.


Feels Like: 39 °F
Forecast: 44 / 73 °F
Wind: 1 mph from North

Location: Pudahuel

Current Time: May 27, 2015 at 3:15:01 AM

Latest Report: May 27, 2015 at 3:00 AM


Visibility: 4 mi

Pressure: 30.09 "Hg

Humidity: 75%

Dew point: 32 °F

Location of SantiagoLocation

Historic Weather in Santiago — Graph

°F

Santiago temperature yesterday

Maximum temperature yesterday: 64 °F (at 4:00 PM)
Minimum temperature yesterday: 36 °F (at 9:00 AM)
Average temperature yesterday: 49 °F

Past Weeks' High & Low Weather Summary

 TemperatureHumidityPressure
High86 °F (May 19, 4:00 PM)100% (May 22, 7:00 AM)30.18 "Hg (May 22, 7:00 AM)
Low34 °F (May 24, 8:00 AM)8% (May 19, 4:00 PM)29.89 "Hg (May 14, 4:00 PM)
Average53 °F61%30.04 "Hg
* Reported May 12 2:00 AM — May 27 2:00 AM, Santiago, Weather by CustomWeather, © 2015

Note: Actual official high and low records may vary slightly from our data, if they occured in-between our weather recording intervals... More about our weather records

Advertising

Santiago weather history for previous 24 hours

 ConditionsComfort  
Time TempWeatherWind HumidityBarometerVisibility
2:00 AM
Wed, May 27
39 °FClear.2 mph70%30.09 "Hg5 mi
1:00 AM41 °FClear.2 mph70%30.12 "Hg5 mi
12:00 AM46 °FClear.2 mph66%30.09 "Hg5 mi
11:00 PM
Tue, May 26
46 °FClear.1 mph66%30.09 "Hg5 mi
10:00 PM52 °FClear.8 mph58%30.09 "Hg10 mi
9:00 PM52 °FClear.7 mph58%30.09 "Hg10 mi
8:00 PM54 °FClear.6 mph47%30.09 "Hg10 mi
7:00 PM57 °FClear.8 mph44%30.07 "Hg10 mi
6:00 PM63 °FClear.10 mph37%30.07 "Hg10 mi
5:00 PM64 °FSunny.10 mph32%30.07 "Hg5 mi
4:00 PM64 °FSunny.6 mph32%30.07 "Hg4 mi
3:00 PM63 °FPassing clouds.3 mph34%30.09 "Hg4 mi
2:00 PM59 °FPassing clouds.2 mph39%30.12 "Hg4 mi
1:00 PM54 °FHaze.2 mph51%30.15 "Hg3 mi
12:00 PM50 °FPassing clouds.2 mph58%30.18 "Hg4 mi
11:00 AM45 °FScattered clouds.1 mph66%30.18 "Hg4 mi
10:00 AM37 °FSunny.2 mph75%30.18 "Hg3 mi
9:00 AM36 °FSunny.2 mph81%30.18 "Hg3 mi
8:00 AM37 °FSunny.No wind70%30.15 "Hg4 mi
7:00 AM37 °FClear.2 mph75%30.15 "Hg5 mi
6:00 AM41 °FClear.1 mph76%30.12 "Hg5 mi
5:00 AM45 °FClear.3 mph71%30.12 "Hg4 mi
4:00 AM45 °FClear.6 mph71%30.12 "Hg4 mi
3:00 AM45 °FClear.2 mph61%30.09 "Hg5 mi
Weather by CustomWeather, © 2015

See weather overviewHow to use our weather pages